INTELSAT 33E (IS-33E)

Last updated on Jan. 25, 2020, 4:43 a.m. UTC

1 41748U 16053B   20024.58396750  .00000041  00000-0  00000-0 0  9995
2 41748   0.0112  45.2896 0001525 247.8534 100.4212  1.00271247 12827
UTC
Height (km)
Latitude
Longitude
Inclination
Orbital Period
UTC large
Height (km)
Speed (km/s)
/
Latitude / Longitude
Inclination (degrees)
Orbital Period (minutes)
Azimuth
Elevation
Range (km)
Doppler Factor
iOS Compass Heading
iOS Angle

Next 30 passes for location: Hong Kong

Rise time Rise Azimuth (degrees) Set time Set Azimuth (degrees) Duration Max altitude (degrees)

No matching passes for this satellites